Wind_Speed
14 23 18 11 15 16 17 21 21 20 17 15 14 13 15 16 10 8 14 21 23 22 19 17 17 16 14 13 13 11 11 12 11 11 12 14 17 21 23 23 22 22 22 24 23 21 21 21 21 22 22 20 16 14 14 14 14 14 14 15 16 16 16
11 20 18 14 17 14 13 17 19 19 19 20 15 7 8 11 9 8 19 29 27 21 17 17 18 17 14 13 13 12 13 12 11 11 11 11 14 19 23 24 23 23 23 24 24 21 21 23 23 22 23 21 18 16 16 16 15 15 15 15 16 16 17
12 17 15 14 19 20 15 10 11 16 17 19 17 6 6 9 7 6 17 26 22 18 20 21 19 17 16 15 12 10 14 16 13 13 13 10 10 14 21 24 24 24 24 24 23 20 20 22 22 22 21 20 19 17 17 17 16 16 16 16 16 17 18
13 16 16 16 19 22 20 13 11 18 17 14 17 16 10 10 5 4 12 14 11 13 20 22 18 16 15 13 10 7 10 15 17 19 18 14 9 9 16 22 23 24 25 24 22 20 20 20 20 20 19 19 20 19 18 18 17 18 18 17 17 17 17
12 14 19 20 19 21 22 16 13 20 20 11 12 19 17 14 8 3 8 7 10 14 16 18 18 15 11 8 7 7 6 8 12 19 22 19 16 12 13 20 23 23 24 24 23 21 21 21 20 20 21 20 20 20 19 18 18 19 18 18 18 17 17
12 15 19 16 13 15 19 20 17 19 21 13 8 13 19 19 12 5 11 9 11 14 14 14 15 14 11 7 8 8 4 3 6 14 23 25 23 19 18 22 25 25 23 23 25 26 25 24 21 21 22 21 21 22 21 20 20 20 19 19 19 17 17
10 11 15 12 10 8 10 16 19 18 20 18 13 9 13 16 6 12 18 13 11 13 13 13 14 14 11 10 11 7 3 5 7 7 14 22 25 24 23 23 26 28 24 21 24 29 28 25 24 23 23 23 23 23 23 23 23 22 22 22 22 21 20
5 6 9 11 11 6 7 13 15 17 19 20 16 8 8 6 9 18 15 8 10 15 14 15 16 15 12 11 11 6 2 5 7 8 10 13 17 22 24 24 27 30 28 23 23 26 26 25 25 24 23 23 24 24 24 25 26 25 25 26 24 23 22
8 8 6 11 14 9 11 15 12 13 14 10 8 7 8 6 4 9 10 7 11 16 15 15 15 14 12 12 11 8 5 4 4 6 10 11 10 13 17 21 23 26 29 26 23 23 23 23 24 23 23 24 24 25 25 26 26 26 26 26 25 23 23
5 5 2 8 16 13 11 13 11 11 11 6 7 7 5 8 8 4 14 15 17 16 14 15 16 15 14 12 11 11 8 6 4 5 9 11 11 9 9 12 16 19 24 27 25 24 23 24 24 23 24 25 25 26 26 26 26 25 24 24 24 24 24
1 2 5 2 9 12 14 16 11 9 11 9 7 7 5 3 6 11 15 19 24 21 17 17 17 16 16 14 12 11 10 8 7 6 7 10 12 11 9 8 10 14 19 24 26 26 26 26 26 26 27 28 28 29 28 27 26 25 24 24 24 24 25
1 3 3 0 2 7 15 21 14 8 10 10 9 10 8 4 7 10 14 19 26 27 22 21 20 18 17 15 13 11 11 10 9 9 9 10 12 12 11 10 9 12 17 22 26 28 29 29 28 28 29 29 29 30 28 25 24 23 23 23 23 23 24
7 3 3 4 4 8 3 13 8 5 9 10 10 12 11 7 3 10 17 20 24 26 25 23 21 18 16 15 13 12 13 12 11 10 9 9 11 12 11 11 10 9 15 20 24 27 28 30 29 27 27 26 26 26 25 23 22 22 22 22 23 22 23
7 7 6 6 5 6 2 6 4 2 5 8 10 12 11 6 2 11 20 22 21 23 24 23 21 19 18 18 16 13 13 12 11 10 8 8 10 11 10 11 12 11 11 15 20 24 26 27 27 26 24 24 24 25 24 22 21 22 23 23 23 23 23
7 8 8 7 7 6 4 5 5 4 5 6 7 9 9 5 8 15 24 25 23 23 23 22 23 22 19 17 15 14 12 9 6 6 7 9 11 12 11 10 11 12 12 12 14 17 20 23 23 23 23 23 23 24 24 22 21 21 22 22 23 24 26
10 9 9 10 10 9 10 11 9 7 9 9 7 8 9 7 13 21 25 26 25 25 21 19 19 18 16 16 16 16 16 10 5 3 4 8 12 13 13 12 10 11 12 12 11 10 11 13 14 16 17 18 19 20 21 20 20 21 21 21 23 24 26
12 12 10 10 10 10 13 16 15 12 11 10 9 9 8 7 13 23 27 26 26 23 18 16 15 15 16 16 16 19 20 17 15 10 5 8 13 13 13 13 11 11 11 10 10 9 8 8 8 9 11 13 16 18 19 20 20 21 21 21 22 24 25
12 12 9 8 8 9 9 10 12 14 14 13 11 10 8 6 11 22 26 24 23 20 16 15 16 17 19 17 14 17 16 13 14 12 6 9 15 14 12 13 12 11 11 10 9 8 7 8 8 8 8 9 11 13 16 17 19 20 20 20 20 22 26
13 12 8 7 7 7 4 2 5 10 12 12 10 8 10 9 12 19 24 22 19 17 15 17 18 19 21 18 12 10 11 7 4 5 4 8 15 14 12 13 12 11 11 10 9 9 7 7 7 6 6 6 6 7 8 10 12 14 16 17 18 20 23
12 12 10 7 4 5 5 5 9 12 9 8 10 10 9 11 12 16 20 20 19 18 18 20 22 19 20 20 13 8 10 11 7 2 3 9 14 14 13 12 11 11 11 10 10 9 9 8 7 6 6 6 5 5 5 5 6 8 9 12 15 17 19
11 14 15 10 5 7 9 8 11 13 8 6 9 9 8 11 14 16 19 19 20 21 19 18 18 13 11 14 11 5 4 8 10 6 5 10 13 13 12 13 11 11 11 10 11 11 10 10 9 8 7 6 6 6 5 5 5 5 6 7 9 11 14
11 13 15 12 8 9 12 12 12 12 8 6 8 10 11 12 14 17 20 20 20 19 16 14 14 10 7 9 12 8 6 6 9 9 6 11 13 12 12 14 12 12 13 12 12 12 11 11 11 10 10 9 8 8 8 7 7 6 6 6 6 7 8
12 11 12 12 9 5 7 12 11 10 10 10 10 11 13 15 15 15 18 19 17 15 13 13 15 13 9 11 14 15 11 7 7 9 11 13 11 10 13 14 12 12 15 14 14 15 14 13 13 13 13 12 11 11 11 11 10 9 9 9 8 8 8
12 11 11 12 8 3 9 14 12 11 12 11 10 9 13 18 17 15 16 16 16 16 14 13 15 14 12 15 17 16 12 8 6 10 15 16 13 12 15 14 12 14 16 16 16 18 17 16 17 17 15 15 15 15 15 14 14 13 12 12 11 11 12
13 12 13 11 4 7 12 12 11 11 9 8 8 7 9 16 19 18 17 13 14 19 19 14 13 13 14 19 21 17 12 10 7 6 10 14 14 15 17 16 15 16 18 16 17 20 19 18 19 19 18 18 18 18 18 18 18 17 16 15 15 14 15
13 13 15 10 6 9 12 12 12 11 6 5 10 12 12 15 17 16 16 15 16 20 21 17 15 15 14 16 19 17 13 10 7 7 13 19 21 19 18 18 20 21 19 17 19 21 20 20 20 20 19 20 20 20 21 21 21 20 20 20 19 18 17
13 13 14 10 6 11 14 12 11 10 7 8 14 17 18 20 19 17 15 19 22 22 22 22 20 16 15 19 23 23 18 11 9 15 22 26 25 22 20 21 23 23 21 21 21 22 21 22 22 21 21 21 21 21 22 23 23 23 23 23 22 22 21
11 12 9 5 5 11 14 12 11 12 13 12 12 14 17 19 21 21 17 19 23 22 20 24 25 21 20 23 25 25 21 18 19 24 28 27 25 24 25 26 26 24 23 23 24 23 23 24 24 24 24 23 23 23 23 23 24 24 25 25 25 24 24
6 7 4 4 7 11 12 13 15 14 12 11 12 14 15 14 16 18 14 14 18 16 14 18 24 24 24 23 23 22 20 20 22 25 26 26 26 26 26 27 26 24 23 23 23 24 24 25 25 25 25 25 25 25 25 25 25 25 26 26 26 26 26
6 7 7 7 10 12 9 12 15 14 12 11 12 12 12 12 14 16 14 15 17 15 13 15 17 21 22 23 22 21 19 19 20 22 23 24 26 27 28 28 27 26 24 23 24 24 24 24 25 25 25 25 26 26 26 26 25 26 27 27 27 27 27
9 8 9 10 10 11 9 8 9 12 13 14 14 13 14 18 20 19 18 18 16 14 14 15 16 19 21 21 22 21 20 20 20 21 21 23 24 26 28 29 29 29 28 28 26 25 24 25 25 25 25 26 26 26 26 26 26 27 28 28 28 29 28
10 8 9 11 12 12 11 8 7 9 11 12 15 17 19 21 23 21 20 20 19 18 18 18 18 20 21 21 22 22 21 20 20 19 20 20 20 22 23 25 27 29 31 31 30 28 26 25 25 25 26 26 27 27 28 28 28 28 28 29 30 30 31
12 11 12 14 14 13 12 11 10 10 10 12 14 16 19 22 23 22 20 19 19 19 20 21 21 21 22 23 24 24 23 21 20 20 19 18 18 18 19 20 22 24 27 29 28 27 25 24 23 23 23 24 26 27 28 29 29 29 29 30 31 32 33
12 12 13 15 15 12 12 13 12 10 12 13 12 12 14 15 16 20 22 21 21 22 22 23 23 22 22 25 25 24 24 22 21 20 19 18 18 18 19 19 20 21 22 23 24 24 23 21 20 20 20 20 21 22 24 26 28 29 30 30 31 32 33
14 13 14 15 14 11 11 15 16 15 16 14 11 12 12 10 10 15 17 17 17 18 19 21 22 22 23 24 24 24 24 23 22 20 19 19 18 18 19 19 20 21 21 21 22 23 22 22 21 20 20 19 19 19 20 22 23 25 27 28 29 31 32
16 15 15 16 17 14 13 15 16 18 21 19 16 16 15 11 9 9 10 11 11 12 13 15 15 16 16 15 16 19 22 21 20 19 19 19 18 18 19 19 20 21 21 21 22 23 23 24 24 23 22 22 21 20 21 21 22 22 24 26 27 29 30
20 19 17 17 19 18 17 16 17 18 19 17 16 14 12 11 10 8 7 10 10 9 11 9 7 10 13 12 12 15 18 19 19 18 18 18 18 18 18 18 18 19 19 21 22 23 24 24 25 25 25 25 24 23 22 23 23 23 24 24 26 27 29
Wind_Direction
213 205 210 208 198 201 204 208 217 224 224 225 229 231 220 211 211 179 131 116 123 131 134 138 132 125 123 124 123 117 122 145 158 167 182 190 191 193 198 200 201 199 195 196 202 205 207 214 212 206 207 213 219 216 208 213 217 213 216 218 219 220 221
202 200 212 211 206 217 208 198 211 222 231 239 237 257 261 224 208 173 139 135 142 143 140 148 138 125 126 133 134 121 118 127 133 150 173 184 188 192 197 201 200 196 196 199 202 203 206 213 213 207 207 209 215 217 208 210 218 218 219 221 221 221 222
190 194 213 216 216 226 228 225 223 215 228 241 225 231 290 235 205 160 145 142 145 148 147 149 142 131 125 130 138 128 132 142 146 159 165 169 191 195 194 200 199 194 197 201 204 205 204 211 213 208 207 208 211 215 211 209 215 219 219 220 222 223 223
191 191 209 217 217 223 232 258 247 218 233 253 220 213 245 244 225 150 150 141 124 135 146 145 139 132 126 136 152 138 144 161 167 170 161 150 165 187 192 199 202 201 201 201 203 205 205 211 214 211 209 209 209 213 213 209 211 215 214 214 219 221 222
191 196 206 211 214 215 219 231 231 216 224 248 227 216 225 242 254 165 147 127 106 119 134 135 129 124 126 145 149 132 159 178 170 173 172 160 149 148 175 194 199 202 205 206 203 201 204 207 208 210 212 212 209 211 213 211 211 213 210 208 214 219 221
204 207 199 200 205 206 211 216 220 215 210 220 238 218 215 233 254 181 146 124 111 124 129 129 126 123 125 118 103 112 157 164 139 167 179 177 166 153 157 178 193 201 206 208 203 199 201 202 202 206 211 214 214 212 212 213 214 213 210 207 209 214 219
209 197 181 190 198 205 223 215 212 214 208 211 222 226 224 227 208 123 135 132 124 140 139 133 131 123 114 99 96 107 126 108 98 129 166 180 184 178 171 175 186 194 198 201 200 199 199 198 199 203 208 214 217 218 217 216 216 215 214 212 211 211 212
200 180 177 206 215 234 237 203 202 214 213 214 224 263 301 242 136 114 126 131 137 151 148 141 139 127 115 105 105 105 78 108 112 112 133 158 181 189 193 196 194 191 192 194 197 200 201 201 203 205 210 215 218 221 223 222 222 221 219 219 219 219 214
201 191 194 216 219 233 222 198 199 218 220 235 265 303 334 295 218 137 129 124 144 156 151 143 140 133 129 126 121 112 81 85 100 112 127 136 152 176 195 208 208 201 198 195 193 196 200 204 210 210 211 216 221 224 225 223 225 226 225 226 228 228 223
208 193 246 224 209 214 217 208 212 226 233 268 303 302 306 283 283 118 123 132 143 152 152 145 144 142 139 136 137 132 114 103 90 91 115 124 131 144 170 197 207 207 204 203 200 200 201 203 209 211 210 214 219 225 226 222 221 222 225 229 231 230 228
16 20 341 285 195 204 217 220 222 231 242 251 267 282 290 322 30 85 129 151 151 153 155 149 146 145 140 134 133 125 107 103 96 88 101 111 118 123 131 162 189 197 200 203 204 206 207 206 208 212 214 215 215 217 221 222 220 219 222 228 232 234 236
254 10 350 207 236 257 224 213 215 225 238 252 255 247 249 313 41 101 152 165 155 155 157 153 150 146 140 138 134 119 105 102 94 90 95 98 110 119 120 131 162 186 193 199 202 205 208 208 209 214 218 218 214 212 212 214 217 220 226 233 237 238 239
224 267 292 233 299 332 216 182 185 217 228 243 253 248 253 285 20 136 160 161 152 151 154 154 154 150 146 143 136 127 124 119 108 102 95 91 106 115 116 122 134 165 188 198 204 207 209 210 212 217 222 222 219 217 214 212 215 220 225 232 237 238 238
236 236 257 242 255 332 42 146 154 203 226 237 243 249 255 262 117 145 156 152 147 149 152 151 152 154 154 148 140 138 138 128 117 113 100 90 108 119 120 121 122 133 160 187 203 210 214 217 219 220 223 227 228 228 224 217 216 221 224 228 235 238 238
271 235 233 238 245 282 283 229 226 230 241 248 235 238 244 205 137 149 153 146 144 151 152 154 159 161 156 149 144 135 129 126 118 120 119 110 118 129 129 124 125 127 132 153 181 202 214 221 225 225 225 229 231 230 227 218 213 219 226 232 239 242 240
267 241 223 229 240 255 258 251 245 232 232 239 231 225 227 191 155 157 154 148 152 157 153 153 161 162 153 151 153 140 132 136 130 107 133 140 136 138 137 133 132 131 127 130 144 164 188 204 216 220 220 224 227 228 229 224 218 221 226 230 235 241 245
258 246 227 228 235 241 248 247 239 230 224 227 228 219 213 201 182 173 163 158 159 158 154 152 153 154 152 156 170 168 157 153 151 141 139 157 154 150 145 142 138 136 134 130 130 136 141 152 170 188 199 211 219 226 232 232 231 233 234 234 235 238 243
262 255 223 214 231 234 244 247 234 226 220 219 224 212 181 168 181 175 167 164 163 159 158 158 157 163 165 162 173 178 167 161 167 163 143 152 161 159 155 155 150 146 146 143 139 139 137 137 142 152 171 191 207 219 227 231 236 241 243 245 246 242 240
265 265 221 203 232 231 228 232 192 196 205 211 206 180 157 156 170 174 170 164 162 161 159 160 169 183 184 173 163 162 151 136 165 178 142 155 168 168 167 168 166 161 161 159 158 155 155 155 150 149 159 168 182 201 213 221 229 238 242 246 250 249 246
249 251 224 211 236 216 194 180 165 155 150 166 160 138 139 155 161 172 175 166 158 159 162 169 180 191 191 184 178 164 147 134 128 170 193 177 177 179 183 184 181 180 179 175 176 175 174 176 176 174 177 175 179 189 195 204 214 223 231 236 241 247 250
231 239 232 222 231 226 210 195 180 167 151 152 160 149 147 159 159 163 169 166 159 160 164 172 181 192 202 193 185 191 193 160 151 169 211 198 188 188 197 201 198 199 201 199 196 195 193 193 194 195 199 202 205 211 213 219 224 225 230 232 236 241 245
222 238 242 228 226 239 222 204 201 198 193 191 187 178 167 168 171 168 166 162 158 162 168 172 180 193 199 169 151 161 220 207 157 156 198 210 202 201 212 217 214 213 217 218 216 215 213 212 211 210 213 218 225 234 240 240 242 244 248 254 256 255 255
223 229 242 230 227 244 198 180 180 183 186 188 190 192 189 182 178 174 172 168 166 172 179 177 179 184 179 164 155 161 186 203 178 186 213 223 221 221 226 229 227 227 230 230 230 231 230 227 227 227 229 231 233 238 244 247 251 251 251 257 262 267 273
236 227 234 233 227 171 154 159 158 163 180 192 195 207 208 195 182 176 182 187 187 186 184 178 174 172 182 196 188 174 176 192 201 216 224 226 232 242 246 247 238 233 238 239 236 240 241 238 238 241 243 243 240 241 243 246 251 253 253 255 258 262 267
237 231 234 235 189 146 163 163 162 172 185 200 201 199 197 190 181 174 178 191 197 193 195 199 191 184 197 209 201 189 196 209 208 228 236 233 240 251 259 265 258 248 249 246 241 246 249 246 246 249 251 248 246 247 248 248 250 252 254 255 255 256 261
235 237 238 227 150 153 171 160 161 181 196 201 192 179 163 166 170 169 175 187 189 184 186 191 187 183 198 213 207 200 210 219 214 236 254 257 261 262 261 265 266 263 263 259 254 256 257 254 253 253 253 252 251 252 252 252 252 253 253 254 254 254 256
232 234 235 228 184 173 177 168 171 191 205 209 201 187 172 168 166 164 179 197 197 190 186 187 185 181 194 213 219 218 221 234 244 249 253 257 262 266 266 266 267 267 268 268 265 265 265 264 263 261 258 257 256 255 255 256 257 257 256 255 254 254 255
232 232 224 227 189 166 168 178 192 197 200 206 205 190 183 184 179 171 179 200 202 197 196 197 197 197 202 215 228 233 235 243 249 250 253 257 261 265 267 268 267 267 267 266 265 266 266 267 267 267 266 265 263 262 260 260 260 260 260 259 257 256 256
242 244 203 161 155 155 170 196 205 207 207 209 208 196 189 196 190 176 184 217 216 206 203 201 201 206 215 224 234 238 239 242 247 250 254 259 263 264 265 265 264 264 263 263 262 263 264 265 266 267 267 267 266 266 265 264 264 263 262 262 261 259 257
236 235 216 192 163 154 175 203 208 213 212 209 216 210 196 203 200 182 188 224 232 221 213 211 211 217 224 231 236 239 240 242 247 251 253 257 261 264 265 264 263 262 261 260 259 260 262 264 265 266 267 267 268 268 268 268 268 267 267 266 265 263 260
231 226 225 218 188 173 182 191 203 216 212 206 213 209 196 204 210 202 204 223 237 237 228 226 230 232 234 238 242 244 246 248 249 251 254 256 259 262 264 265 265 264 263 260 259 259 260 263 265 266 268 269 270 271 271 271 271 270 270 271 270 268 265
221 218 210 195 181 185 190 181 190 216 217 216 220 214 207 212 218 221 226 234 246 254 251 242 237 238 242 247 250 252 254 255 253 252 252 255 259 263 266 267 267 265 264 262 261 261 261 263 266 267 269 270 271 272 272 272 273 273 273 273 273 273 272
218 225 225 209 199 201 201 195 203 226 242 250 248 232 220 223 228 230 230 233 239 247 250 248 244 244 245 248 251 255 257 256 252 251 251 254 259 262 265 268 268 268 267 266 265 264 264 264 264 266 268 269 271 272 272 272 272 272 272 273 274 275 275
220 220 220 218 217 219 219 211 203 210 228 244 257 246 223 219 229 231 230 232 237 241 246 249 250 250 250 250 252 254 256 254 250 250 253 255 256 258 260 263 267 269 270 270 269 268 267 265 264 264 266 269 272 273 273 273 272 272 272 272 273 274 276
234 224 213 212 212 211 219 213 200 200 211 216 232 248 237 215 213 222 224 225 229 237 244 247 248 248 249 252 255 254 253 252 251 252 255 256 255 257 258 259 261 264 266 269 270 270 270 271 270 269 270 272 274 275 276 276 275 275 275 274 273 273 274
239 235 228 227 223 219 224 221 211 214 219 215 216 233 239 225 204 214 238 242 231 227 233 237 246 256 254 250 253 256 256 256 256 256 258 258 258 260 260 259 259 260 262 265 267 268 271 273 274 275 275 274 274 274 276 277 277 277 277 277 276 275 275
241 243 241 243 240 234 233 235 233 231 228 224 222 223 226 224 205 194 235 260 251 237 231 225 240 265 260 247 247 257 262 265 264 262 262 262 262 262 260 259 259 259 260 263 264 265 267 269 272 275 276 276 275 275 274 276 277 278 279 280 282 283 282
Height
3127 3128 3129 3130 3130 3129 3132 3135 3135 3134 3134 3133 3133 3131 3130 3130 3131 3134 3137 3143 3149 3153 3158 3161 3161 3163 3165 3165 3167 3167 3167 3167 3169 3170 3171 3171 3172 3174 3176 3177 3179 3181 3183 3185 3187 3189 3191 3195 3197 3197 3198 3200 3201 3202 3203 3204 3205 3207 3208 3209 3210 3212 3213
3126 3128 3129 3130 3130 3128 3130 3133 3135 3136 3135 3133 3132 3131 3130 3128 3128 3134 3137 3140 3147 3151 3155 3160 3160 3162 3164 3163 3165 3167 3166 3166 3168 3170 3171 3170 3170 3171 3174 3176 3178 3181 3182 3183 3184 3187 3190 3193 3196 3196 3197 3199 3200 3201 3202 3203 3204 3206 3207 3208 3209 3211 3212
3125 3127 3128 3129 3130 3128 3128 3131 3132 3133 3132 3130 3130 3131 3134 3128 3125 3135 3142 3141 3145 3149 3152 3157 3159 3161 3162 3161 3162 3164 3164 3164 3166 3167 3169 3169 3169 3170 3173 3175 3177 3179 3181 3182 3185 3188 3190 3192 3194 3195 3197 3198 3199 3200 3201 3202 3203 3205 3206 3207 3208 3210 3211
3124 3127 3127 3127 3128 3127 3128 3130 3131 3132 3130 3128 3128 3129 3132 3129 3125 3135 3145 3146 3149 3151 3152 3156 3158 3159 3160 3159 3160 3161 3162 3162 3163 3165 3167 3168 3169 3170 3173 3175 3176 3178 3180 3181 3184 3186 3189 3191 3192 3193 3195 3197 3198 3199 3200 3200 3202 3203 3204 3206 3207 3208 3210
3124 3125 3125 3126 3127 3127 3128 3129 3130 3130 3129 3128 3128 3127 3129 3130 3127 3131 3141 3148 3153 3154 3155 3156 3157 3159 3160 3159 3159 3159 3160 3161 3162 3164 3165 3166 3167 3168 3171 3174 3176 3177 3179 3181 3183 3185 3187 3189 3191 3192 3193 3195 3197 3197 3198 3199 3200 3202 3203 3204 3206 3208 3209
3122 3122 3122 3124 3125 3126 3127 3128 3128 3127 3128 3129 3128 3126 3127 3129 3129 3130 3137 3147 3153 3154 3156 3157 3158 3159 3159 3159 3159 3159 3159 3160 3161 3162 3163 3164 3165 3166 3167 3171 3173 3176 3178 3180 3182 3183 3185 3187 3189 3190 3192 3193 3194 3196 3197 3198 3199 3200 3202 3203 3205 3207 3209
3120 3120 3121 3124 3124 3124 3124 3126 3127 3126 3127 3129 3129 3127 3127 3128 3130 3131 3135 3144 3152 3155 3156 3157 3159 3160 3159 3159 3160 3160 3160 3161 3161 3161 3162 3163 3165 3165 3166 3168 3170 3174 3177 3179 3181 3182 3183 3185 3186 3188 3189 3190 3192 3193 3195 3196 3197 3199 3201 3202 3204 3205 3207
3121 3121 3123 3124 3124 3124 3124 3124 3125 3126 3126 3128 3129 3129 3128 3128 3131 3133 3135 3143 3151 3154 3155 3156 3158 3159 3159 3160 3162 3162 3162 3162 3162 3161 3162 3163 3164 3165 3166 3166 3168 3171 3174 3178 3181 3182 3182 3183 3184 3185 3187 3188 3189 3191 3193 3194 3196 3197 3199 3200 3202 3204 3206
3122 3122 3123 3124 3125 3125 3125 3125 3126 3126 3127 3128 3128 3129 3129 3128 3130 3132 3136 3145 3152 3153 3155 3156 3157 3159 3161 3162 3163 3164 3163 3163 3162 3161 3162 3163 3163 3163 3164 3165 3167 3170 3173 3175 3178 3180 3180 3182 3183 3184 3185 3186 3188 3189 3191 3193 3195 3196 3197 3199 3201 3203 3205
3121 3121 3122 3122 3123 3125 3125 3125 3126 3127 3128 3129 3130 3130 3131 3130 3130 3132 3136 3144 3151 3154 3155 3156 3158 3160 3161 3162 3164 3164 3164 3164 3163 3162 3162 3162 3163 3163 3164 3164 3166 3168 3171 3173 3175 3176 3178 3180 3181 3182 3182 3183 3184 3186 3188 3191 3193 3194 3196 3198 3199 3201 3203
3123 3124 3124 3122 3123 3125 3126 3126 3127 3127 3128 3130 3131 3132 3133 3131 3131 3134 3137 3141 3147 3151 3154 3156 3159 3160 3160 3162 3163 3164 3164 3165 3164 3163 3163 3162 3163 3163 3164 3164 3165 3166 3169 3171 3172 3174 3176 3177 3178 3179 3179 3179 3180 3182 3185 3188 3190 3191 3193 3195 3197 3199 3201
3126 3126 3125 3124 3125 3125 3125 3125 3126 3128 3129 3130 3132 3132 3133 3133 3133 3137 3141 3141 3143 3148 3152 3155 3158 3159 3160 3162 3163 3164 3164 3165 3165 3165 3164 3163 3162 3163 3163 3164 3164 3165 3167 3168 3170 3172 3173 3175 3176 3177 3178 3178 3178 3179 3182 3185 3187 3189 3190 3192 3194 3197 3199
3126 3127 3126 3126 3126 3124 3123 3124 3127 3129 3129 3130 3131 3132 3133 3134 3134 3139 3143 3144 3145 3148 3151 3154 3157 3159 3160 3161 3163 3164 3165 3165 3166 3166 3165 3163 3162 3162 3163 3164 3164 3165 3166 3167 3168 3170 3171 3173 3174 3176 3177 3179 3181 3181 3182 3184 3185 3187 3188 3189 3192 3196 3198
3126 3127 3127 3127 3127 3126 3125 3127 3129 3130 3131 3131 3132 3132 3133 3135 3135 3138 3143 3146 3148 3150 3151 3153 3156 3158 3159 3160 3162 3163 3164 3165 3165 3165 3165 3163 3162 3162 3163 3164 3164 3165 3166 3166 3167 3168 3170 3172 3173 3174 3177 3179 3182 3184 3185 3184 3184 3186 3188 3188 3190 3193 3195
3126 3127 3128 3128 3128 3128 3128 3128 3130 3131 3132 3133 3133 3133 3134 3135 3136 3139 3142 3144 3148 3150 3151 3152 3155 3156 3157 3159 3161 3162 3164 3165 3165 3164 3163 3162 3162 3163 3163 3164 3165 3165 3166 3167 3167 3168 3169 3170 3172 3173 3175 3177 3180 3183 3184 3183 3183 3185 3186 3187 3189 3191 3192
3127 3126 3127 3128 3129 3129 3129 3129 3130 3131 3133 3133 3133 3134 3135 3136 3137 3139 3142 3143 3145 3148 3150 3151 3153 3155 3157 3159 3160 3161 3162 3164 3165 3164 3162 3162 3162 3163 3163 3164 3165 3165 3166 3167 3168 3168 3169 3169 3171 3173 3174 3175 3177 3180 3182 3182 3182 3183 3184 3185 3187 3188 3189
3126 3125 3126 3127 3128 3129 3128 3128 3129 3131 3132 3133 3133 3134 3135 3136 3136 3137 3140 3142 3144 3147 3148 3150 3153 3155 3157 3158 3158 3158 3159 3161 3163 3163 3162 3161 3162 3163 3163 3164 3165 3165 3166 3167 3167 3168 3169 3169 3170 3172 3173 3174 3176 3178 3180 3180 3181 3182 3183 3184 3185 3186 3186
3125 3124 3125 3127 3128 3127 3126 3126 3128 3129 3130 3132 3133 3133 3135 3136 3136 3137 3139 3141 3143 3146 3148 3150 3152 3153 3154 3154 3155 3156 3159 3160 3161 3161 3161 3160 3161 3162 3163 3164 3165 3166 3166 3167 3167 3168 3169 3169 3170 3171 3172 3173 3174 3176 3177 3178 3179 3180 3182 3183 3184 3184 3185
3125 3124 3124 3126 3126 3125 3126 3126 3126 3126 3129 3131 3132 3132 3133 3136 3137 3137 3139 3141 3143 3145 3148 3151 3151 3151 3152 3153 3154 3156 3158 3160 3161 3161 3160 3159 3160 3161 3162 3163 3164 3165 3166 3167 3167 3168 3168 3169 3169 3170 3171 3172 3173 3174 3175 3176 3177 3178 3179 3181 3182 3183 3183
3125 3124 3124 3125 3124 3124 3125 3125 3124 3126 3128 3129 3130 3132 3133 3136 3138 3138 3139 3141 3143 3145 3147 3149 3149 3149 3151 3153 3154 3155 3156 3159 3161 3162 3159 3158 3159 3160 3161 3162 3163 3164 3165 3166 3167 3167 3168 3168 3169 3170 3170 3171 3172 3173 3174 3174 3175 3176 3177 3178 3179 3180 3181
3123 3123 3122 3123 3123 3124 3124 3125 3125 3126 3128 3129 3131 3133 3134 3136 3138 3139 3140 3141 3143 3145 3146 3147 3148 3149 3151 3152 3154 3155 3155 3156 3159 3160 3158 3157 3158 3159 3160 3161 3163 3164 3165 3165 3166 3167 3167 3168 3168 3169 3169 3170 3171 3172 3172 3173 3174 3175 3176 3176 3177 3178 3178
3122 3123 3121 3120 3122 3122 3122 3123 3124 3126 3129 3130 3131 3133 3134 3136 3137 3138 3140 3141 3143 3144 3145 3146 3147 3148 3149 3150 3153 3155 3155 3154 3155 3156 3155 3155 3157 3158 3159 3160 3162 3163 3163 3164 3165 3165 3166 3167 3167 3168 3168 3169 3170 3170 3171 3172 3173 3173 3174 3175 3175 3176 3176
3121 3122 3120 3119 3120 3121 3122 3122 3123 3126 3128 3128 3130 3132 3133 3134 3136 3138 3139 3141 3143 3145 3146 3146 3146 3148 3149 3150 3151 3154 3155 3153 3152 3153 3152 3152 3154 3156 3157 3158 3160 3161 3161 3162 3163 3163 3164 3165 3165 3166 3167 3167 3168 3169 3169 3170 3171 3172 3172 3173 3173 3174 3174
3120 3120 3120 3119 3119 3120 3121 3122 3123 3125 3125 3126 3129 3131 3130 3131 3135 3137 3139 3141 3143 3145 3147 3145 3145 3147 3149 3148 3149 3151 3152 3152 3151 3150 3150 3151 3152 3153 3154 3156 3158 3159 3159 3160 3161 3161 3162 3163 3163 3164 3165 3166 3166 3167 3167 3168 3169 3170 3171 3171 3172 3172 3173
3118 3119 3118 3118 3118 3120 3121 3121 3122 3123 3125 3126 3129 3129 3128 3129 3133 3135 3138 3142 3142 3143 3144 3143 3143 3145 3146 3145 3146 3148 3148 3149 3149 3148 3147 3148 3149 3150 3151 3153 3154 3155 3156 3158 3158 3158 3159 3160 3161 3161 3163 3164 3164 3164 3165 3166 3166 3167 3168 3169 3169 3170 3171
3117 3117 3117 3117 3118 3119 3120 3121 3121 3122 3125 3126 3126 3126 3127 3130 3132 3134 3137 3139 3137 3138 3140 3141 3141 3144 3145 3144 3145 3145 3145 3146 3146 3145 3144 3145 3146 3148 3150 3150 3150 3151 3153 3155 3155 3155 3156 3157 3158 3159 3160 3161 3161 3162 3162 3163 3163 3165 3166 3166 3167 3167 3168
3115 3115 3115 3115 3116 3118 3120 3121 3121 3121 3123 3123 3123 3124 3126 3128 3130 3133 3134 3134 3133 3135 3137 3138 3140 3142 3142 3141 3142 3142 3143 3144 3144 3143 3142 3142 3144 3146 3147 3147 3148 3149 3150 3151 3152 3152 3153 3154 3155 3156 3157 3157 3158 3159 3159 3160 3160 3161 3162 3163 3164 3164 3165
3113 3113 3113 3114 3114 3117 3119 3119 3119 3119 3120 3121 3123 3124 3125 3126 3128 3130 3130 3130 3132 3134 3135 3137 3138 3138 3139 3139 3140 3140 3141 3142 3142 3141 3140 3141 3143 3144 3144 3144 3145 3147 3148 3148 3149 3149 3150 3150 3151 3152 3153 3154 3155 3155 3156 3157 3157 3158 3158 3159 3160 3161 3162
3111 3111 3112 3113 3115 3117 3117 3116 3117 3118 3119 3121 3122 3123 3124 3125 3126 3128 3128 3128 3130 3132 3133 3135 3136 3137 3137 3138 3138 3138 3139 3140 3139 3139 3140 3140 3141 3141 3141 3142 3143 3144 3146 3146 3146 3146 3147 3147 3148 3148 3149 3150 3151 3151 3152 3153 3154 3154 3154 3155 3156 3157 3158
3111 3111 3111 3113 3115 3116 3115 3114 3115 3117 3118 3120 3121 3123 3124 3124 3124 3126 3127 3126 3127 3130 3132 3132 3134 3135 3135 3135 3135 3136 3137 3138 3138 3138 3139 3139 3139 3139 3139 3139 3140 3141 3143 3143 3144 3144 3144 3144 3145 3145 3146 3146 3147 3148 3148 3149 3150 3150 3150 3151 3152 3153 3154
3111 3111 3111 3112 3114 3115 3114 3114 3115 3116 3116 3118 3119 3121 3122 3121 3120 3123 3125 3124 3125 3128 3129 3130 3131 3132 3132 3133 3133 3134 3135 3136 3136 3137 3137 3137 3137 3136 3136 3136 3136 3137 3138 3139 3140 3141 3141 3142 3142 3142 3143 3143 3143 3144 3144 3145 3145 3146 3146 3147 3147 3148 3149
3110 3110 3110 3111 3112 3113 3113 3114 3115 3115 3115 3115 3117 3118 3118 3118 3118 3120 3122 3123 3123 3124 3125 3127 3128 3129 3130 3130 3130 3131 3132 3133 3134 3134 3134 3134 3134 3134 3134 3133 3133 3133 3133 3134 3136 3137 3138 3139 3139 3139 3139 3140 3140 3140 3140 3141 3141 3142 3142 3143 3143 3143 3144
3109 3109 3109 3109 3110 3111 3111 3113 3114 3115 3113 3112 3114 3115 3115 3115 3116 3117 3119 3121 3120 3120 3122 3123 3124 3126 3126 3127 3127 3128 3129 3130 3131 3131 3132 3132 3132 3132 3132 3131 3130 3130 3130 3130 3131 3133 3134 3135 3136 3136 3136 3136 3136 3136 3136 3137 3137 3138 3138 3139 3139 3139 3139
3107 3106 3106 3106 3108 3110 3110 3111 3113 3114 3113 3111 3111 3112 3113 3113 3113 3114 3116 3117 3117 3118 3118 3119 3120 3122 3122 3122 3123 3124 3125 3126 3127 3128 3129 3130 3130 3130 3129 3129 3129 3128 3128 3128 3128 3129 3130 3131 3132 3133 3133 3133 3133 3133 3133 3133 3133 3133 3134 3134 3135 3135 3135
3104 3103 3103 3104 3106 3107 3107 3108 3110 3111 3111 3110 3110 3110 3111 3112 3111 3111 3112 3114 3115 3115 3116 3116 3117 3118 3118 3119 3119 3120 3121 3122 3123 3125 3126 3126 3127 3127 3127 3127 3127 3126 3126 3126 3126 3126 3126 3127 3128 3129 3129 3129 3130 3130 3130 3129 3129 3130 3130 3130 3131 3131 3131
3101 3101 3102 3103 3103 3104 3104 3105 3107 3108 3108 3108 3109 3108 3108 3109 3109 3109 3110 3111 3112 3113 3113 3114 3114 3114 3115 3115 3116 3116 3117 3118 3119 3120 3122 3122 3123 3124 3124 3124 3124 3124 3124 3124 3123 3123 3123 3123 3123 3124 3125 3125 3126 3126 3126 3126 3126 3126 3126 3126 3126 3126 3126
3098 3099 3100 3101 3102 3102 3102 3103 3104 3104 3105 3106 3107 3106 3106 3106 3107 3109 3110 3110 3110 3110 3111 3112 3113 3112 3112 3112 3112 3112 3113 3114 3115 3116 3117 3118 3119 3119 3120 3120 3121 3121 3121 3121 3121 3121 3121 3121 3120 3120 3120 3121 3121 3122 3122 3122 3123 3123 3123 3123 3123 3123 3123